Location: Ferques
(50.8300°N, 1.7599°E)
Time: 22:16:30
(UTC+00:00)

Cosmos 773 Rocket - Pass Details

Date: 19 May 2025
Orbit: 742 x 772 km, 74.1° (Epoch: 18 June)

Event Time Altitude Azimuth Distance (km) Brightness Sun altitude
Exits shadow 21:51:30 13° 195° (SSW) 2,090 5.8 -14.6°
Maximum altitude 21:56:10 75° 111° (ESE) 776 3.9 -14.9°
Drops below altitude 10° 22:01:17 10° 27° (NNE) 2,266 6.9 -15.3°
Sets 22:03:39 0° 26° (NNE) 3,194 7.8 -15.5°
